[[{"header":{"parameterUnit":"m.s-1","parameterCategory":1,"la1":30.2991,"la2":30.254,"lo1":-89.0895,"lo2":-89.0444,"dy":0.0017,"dx":0.0017,"nx":28,"ny":28,"refTime":"2025-09-09T03:00:00:Z","depth":0,"parameterNumber":2,"parameterNumberName":"U-component_of_WINDS"},"data":[0,0,0,0,0,0,0,0,0,0,0,0,0,0,0,0,0,0,0,0,0,0,0,0,0,0,0,0,0,0,0,0,0,0,0,0,0,0,0,0,0,0,0,0,0,0,0,0,0,0,0,0,0,0,0,0,0,0,-5.8578,-5.8577,0,-5.8519,-5.8518,-5.8518,-5.8325,-5.8321,-5.8317,-5.8312,-5.8256,-5.8258,-5.8261,0,0,0,0,0,0,0,0,0,0,0,0,0,-5.8526,-5.8528,-5.8578,-5.8577,-5.8576,-5.8519,-5.8518,-5.8518,-5.8326,-5.8321,-5.8315,-5.8311,-5.8255,-5.8258,-5.8261,0,0,0,0,0,0,0,0,0,0,0,0,0,-5.8516,-5.8528,-5.8578,-5.8474,-5.8464,-5.8519,-5.8518,-5.8517,-5.8327,-5.8321,-5.8314,-5.8308,-5.8254,-5.8258,-5.8261,-5.8414,0,0,-5.8273,-5.8274,0,0,0,0,0,0,0,0,-5.8517,-5.8518,-5.849,-5.8481,-5.847,-5.8423,-5.8479,-5.8483,-5.8329,-5.8379,-5.8312,-5.8305,-5.8317,-5.8315,-5.8318,-5.8411,-5.8409,-5.8273,-5.8275,-5.8277,-5.8278,0,0,0,0,0,0,0,-5.8518,-5.852,-5.8555,-5.849,-5.8478,-5.843,-5.8422,-5.8479,-5.8385,-5.8374,-5.836,-5.8356,-5.831,-5.8315,-5.8316,-5.8408,-5.8273,-5.8276,-5.8279,-5.828,-5.862,-5.8626,0,0,0,0,0,0,-5.8533,-5.8522,-5.8556,-5.8553,-5.8478,-5.8437,-5.8427,-5.8445,-5.8384,-5.8368,-5.8361,-5.8347,-5.8312,-5.8311,-5.8313,-5.8484,-5.8277,-5.8281,-5.8283,-5.8613,-5.8621,-5.8629,0,0,0,0,0,0,-5.8533,-5.8538,-5.8559,-5.8533,-5.8532,-5.8444,-5.8466,-5.8447,-5.8451,-5.8374,-5.8356,-5.8383,-5.8307,-5.8307,-5.8389,-5.848,-5.8282,-5.8286,-5.8605,-5.8616,-5.8625,-5.8831,0,0,0,0,0,0,-5.8532,-5.8539,-5.8596,-5.8536,-5.8534,-5.8636,-5.8471,-5.845,-5.8458,-5.8439,-5.839,-5.8376,-5.8302,-5.8385,-5.8393,-5.8481,-5.8289,-5.8597,-5.861,-5.8622,-5.8816,-5.8847,-5.8874,0,0,0,0,0,-5.8531,-5.8658,-5.86,-5.8605,-5.8603,-5.8642,-5.8641,-5.8552,-5.8466,-5.8522,-5.8472,-5.8377,-5.8469,-5.8395,-5.8402,-5.8493,-5.8591,-5.8606,-5.8621,-5.8803,-5.8841,-5.8873,0,0,0,0,0,0,-5.8732,-5.8648,-5.8583,-5.8694,-5.8676,-5.8609,-5.8677,-5.8596,-5.8603,-5.8585,-5.8476,-5.8466,-5.8563,-5.8537,-5.8455,-5.8636,-5.8514,-5.8532,-5.865,-5.8685,-5.8714,-5.8717,-5.8292,0,0,0,0,0,-5.8789,-5.8827,-5.8751,-5.8857,-5.8851,-5.8767,-5.878,-5.8713,-5.8691,-5.8683,-5.8639,-5.8622,-5.8646,-5.8665,-5.8683,-5.8812,-5.8797,-5.8878,-5.8907,-5.8932,-5.8947,-5.901,-5.9045,-5.8679,-5.8679,-5.8678,0,0,-5.8908,-5.8866,-5.8897,-5.8896,-5.8874,-5.8915,-5.8762,-5.8812,-5.8841,-5.8691,-5.8763,-5.8732,-5.8705,-5.881,-5.8854,-5.8791,-5.9045,-5.8951,-5.8971,-5.8973,-5.903,-5.9064,-5.9095,-5.8689,-5.8687,-5.8686,0,0,-5.9144,-5.9118,-5.92,-5.9182,-5.915,-5.9093,-5.9113,-5.9058,-5.903,-5.9102,-5.8989,-5.9023,-5.9068,-5.9053,-5.9052,-5.9281,-5.9193,-5.9291,-5.9441,-5.9504,-5.9533,-5.9558,-5.9637,-5.9667,-5.9307,-5.9308,-5.9308,0,-5.9295,-5.9351,-5.9254,-5.9311,-5.9313,-5.9177,-5.926,-5.9247,-5.9225,-5.9229,-5.9159,-5.9211,-5.9184,-5.9282,-5.9338,-5.9343,-5.9361,-5.9294,-5.9537,-5.9561,-5.9583,-5.9657,-5.9687,-5.932,-5.9318,-5.9317,-5.9316,0,-5.9538,-5.9579,-5.965,-5.9628,-5.9639,-5.971,-5.9622,-5.9645,-5.9578,-5.9528,-5.9602,-5.9565,-5.9572,-5.9591,-5.9527,-5.968,-5.9641,-5.9556,-5.943,-5.9631,-5.9698,-5.9726,-5.9336,-5.9332,-5.9329,-5.9326,0,0,-5.9898,-5.982,-5.9848,-5.9835,-5.9791,-5.982,-5.9885,-5.989,-5.991,-5.99,-5.9949,-5.9991,-5.991,-5.9909,-5.9842,-5.9898,-6.0078,-5.9804,-5.9802,-5.9854,-6.0242,-6.0304,-6.0339,-6.0021,-6.0026,-6.003,-6.0243,0,-6.0119,-6.0221,-6.0134,-6.0253,-6.0288,-6.016,-6.0215,-6.0194,-6.015,-6.0174,-6.0125,-6.0154,-6.0048,-6.0046,-6.0096,-6.0046,-6.0154,-6.003,-6.0065,-6.0067,-6.0072,-6.0374,-6.044,-6.0643,-6.0269,-6.0274,-6.0277,0,-6.0389,-6.0388,-6.051,-6.0455,-6.0466,-6.0517,-6.0514,-6.0539,-6.0513,-6.0476,-6.0475,-6.0392,-6.045,-6.033,-6.0408,-6.0325,-6.0335,-6.0313,-6.0319,-6.0316,-6.0182,-6.0377,-6.0706,-6.0735,-6.0318,-6.0315,-6.0312,0,-6.0635,-6.0665,-6.074,-6.0734,-6.0673,-6.0711,-6.0688,-6.0654,-6.0663,-6.0661,-6.0665,-6.0672,-6.0675,-6.0682,-6.0603,-6.0523,-6.0691,-6.0564,-6.0661,-6.0663,-6.0699,-6.0698,-6.1031,-6.0712,-6.0712,-6.0711,-6.0711,0,-6.0889,-6.0968,-6.0849,-6.0895,-6.0979,-6.088,-6.0967,-6.093,-6.0901,-6.0938,-6.083,-6.0867,-6.0762,-6.0788,-6.0728,-6.08,-6.0804,-6.0775,-6.0757,-6.0783,-6.0786,-6.0785,-6.0768,-6.0719,-6.0717,-6.0716,-6.0715,0,-6.1176,-6.11,-6.1173,-6.1109,-6.1095,-6.1159,-6.1104,-6.1144,-6.1093,-6.1141,-6.1146,-6.1066,-6.1091,-6.1014,-6.1028,-6.0987,-6.1092,-6.1053,-6.11,-6.1087,-6.1187,-6.1177,-6.1529,-6.1569,-6.1229,-6.1232,-6.1235,0,-6.1341,-6.1398,-6.1339,-6.1355,-6.1336,-6.1364,-6.1371,-6.1276,-6.1288,-6.1262,-6.1305,-6.1321,-6.1328,-6.1375,-6.1319,-6.1328,-6.1287,-6.1409,-6.1287,-6.131,-6.1284,-6.128,-6.1284,-6.1434,-6.1438,-6.1441,-6.1444,0,-6.1641,-6.16,-6.1613,-6.1614,-6.1625,-6.1621,-6.161,-6.163,-6.1528,-6.1547,-6.157,-6.1576,-6.1589,-6.1606,-6.1603,-6.158,-6.1495,-6.1484,-6.1505,-6.153,-6.1554,-6.1539,-6.1165,-6.1475,-6.1472,-6.147,-6.1468,-6.1467,-6.1869,-6.1912,-6.1876,-6.1895,-6.1876,-6.1868,-6.1901,-6.1853,-6.1871,-6.1872,-6.1816,-6.1851,-6.1822,-6.1809,-6.1794,-6.182,-6.1763,-6.1797,-6.1804,-6.1813,-6.1828,-6.1553,-6.182,-6.1819,-6.1818,-6.1817,-6.1817,0,-6.2159,-6.213,-6.2148,-6.2134,-6.2148,-6.2067,-6.205,-6.2068,-6.2099,-6.2079,-6.2087,-6.2114,-6.213,-6.2075,-6.2082,-6.2114,-6.2075,-6.2119,-6.2113,-6.2109,-6.188,-6.1859,-6.215,-6.215,-6.215,-6.2149,-6.2149,-6.2149,-6.2312,-6.2379,-6.2335,-6.2392,-6.2362,-6.2394,-6.2391,-6.2383,-6.2365,-6.2399,-6.2411,-6.2374,-6.2339,-6.2344,-6.2354,-6.2338,-6.2344,-6.2401,-6.2371,-6.2158,-6.2125,-6.2094,-6.2073,-6.2404,-6.2405,-6.2596,-6.2598,-6.26]},{"header":{"parameterUnit":"m.s-1","parameterCategory":1,"la1":30.2991,"la2":30.254,"lo1":-89.0895,"lo2":-89.0444,"dy":0.0017,"dx":0.0017,"nx":28,"ny":28,"refTime":"2025-09-09T03:00:00:Z","depth":0,"parameterNumber":3,"parameterNumberName":"V-component_of_WINDS"},"data":[0,0,0,0,0,0,0,0,0,0,0,0,0,0,0,0,0,0,0,0,0,0,0,0,0,0,0,0,0,0,0,0,0,0,0,0,0,0,0,0,0,0,0,0,0,0,0,0,0,0,0,0,0,0,0,0,0,0,-1.1536,-1.1537,0,-1.1617,-1.1618,-1.1619,-1.1664,-1.1664,-1.1665,-1.1665,-1.1751,-1.1753,-1.1755,0,0,0,0,0,0,0,0,0,0,0,0,0,-1.1423,-1.1424,-1.1536,-1.1537,-1.1538,-1.1617,-1.1618,-1.1619,-1.1664,-1.1664,-1.1665,-1.1665,-1.175,-1.1753,-1.1755,0,0,0,0,0,0,0,0,0,0,0,0,0,-1.1485,-1.1425,-1.1536,-1.157,-1.1574,-1.1617,-1.1618,-1.162,-1.1664,-1.1664,-1.1665,-1.1665,-1.1749,-1.1752,-1.1756,-1.1772,0,0,-1.1766,-1.1767,0,0,0,0,0,0,0,0,-1.1481,-1.1489,-1.1564,-1.1568,-1.1572,-1.1631,-1.161,-1.1671,-1.1664,-1.163,-1.1665,-1.1665,-1.1711,-1.1717,-1.1732,-1.1776,-1.178,-1.1766,-1.1768,-1.1769,-1.177,0,0,0,0,0,0,0,-1.1477,-1.1485,-1.1568,-1.1565,-1.157,-1.1582,-1.1591,-1.1622,-1.1669,-1.1633,-1.1636,-1.1645,-1.1713,-1.1729,-1.1735,-1.1781,-1.1766,-1.1769,-1.1771,-1.1772,-1.1841,-1.1841,0,0,0,0,0,0,-1.1467,-1.1482,-1.1566,-1.1571,-1.1526,-1.1584,-1.1594,-1.1612,-1.1668,-1.1677,-1.1645,-1.1647,-1.1723,-1.1731,-1.1738,-1.176,-1.1769,-1.1772,-1.1774,-1.1841,-1.1841,-1.1841,0,0,0,0,0,0,-1.1464,-1.1474,-1.1563,-1.1527,-1.1539,-1.1586,-1.1605,-1.1613,-1.1629,-1.1677,-1.1686,-1.1652,-1.1724,-1.1733,-1.1763,-1.1763,-1.1774,-1.1777,-1.1841,-1.1841,-1.1841,-1.1804,0,0,0,0,0,0,-1.146,-1.1472,-1.1479,-1.1527,-1.1541,-1.1585,-1.1605,-1.1615,-1.1634,-1.1638,-1.1687,-1.1695,-1.1725,-1.1757,-1.1766,-1.1768,-1.1779,-1.1842,-1.1841,-1.1841,-1.1806,-1.1803,-1.18,0,0,0,0,0,-1.1456,-1.1466,-1.1479,-1.1489,-1.155,-1.1585,-1.1593,-1.1626,-1.1634,-1.1641,-1.1672,-1.1693,-1.1762,-1.176,-1.177,-1.1773,-1.1842,-1.1841,-1.1841,-1.1807,-1.1803,-1.1801,0,0,0,0,0,0,-1.1418,-1.1473,-1.1488,-1.1513,-1.1544,-1.1593,-1.1602,-1.1622,-1.1652,-1.1654,-1.1695,-1.1706,-1.1731,-1.1755,-1.1752,-1.1792,-1.1804,-1.1806,-1.1775,-1.1772,-1.1769,-1.1763,-1.1782,0,0,0,0,0,-1.1412,-1.1436,-1.1483,-1.1501,-1.1515,-1.1556,-1.1573,-1.1595,-1.1629,-1.1643,-1.1676,-1.1709,-1.1738,-1.1756,-1.1786,-1.1809,-1.1821,-1.1816,-1.1814,-1.1812,-1.1812,-1.1826,-1.1825,-1.184,-1.184,-1.184,0,0,-1.1401,-1.1434,-1.1447,-1.1494,-1.152,-1.1544,-1.1567,-1.1591,-1.1609,-1.1647,-1.1676,-1.1702,-1.1741,-1.1767,-1.1781,-1.1788,-1.1811,-1.1811,-1.1809,-1.1811,-1.1826,-1.1824,-1.1823,-1.184,-1.184,-1.184,0,0,-1.1393,-1.142,-1.1437,-1.1463,-1.1502,-1.1529,-1.1533,-1.1579,-1.1597,-1.1626,-1.1655,-1.1678,-1.1727,-1.1753,-1.1774,-1.1774,-1.1795,-1.1782,-1.1769,-1.1782,-1.178,-1.178,-1.1779,-1.1778,-1.1783,-1.1783,-1.1783,0,-1.1374,-1.141,-1.1444,-1.1467,-1.1486,-1.152,-1.1538,-1.1562,-1.1609,-1.1622,-1.163,-1.1692,-1.1721,-1.1753,-1.1753,-1.1768,-1.1774,-1.1777,-1.1778,-1.1777,-1.1777,-1.1777,-1.1777,-1.1781,-1.1782,-1.1782,-1.1782,0,-1.1385,-1.141,-1.1419,-1.1462,-1.1483,-1.1503,-1.1541,-1.1558,-1.1579,-1.1605,-1.1634,-1.167,-1.1707,-1.1716,-1.1738,-1.1752,-1.1755,-1.177,-1.1783,-1.1773,-1.1774,-1.1774,-1.1779,-1.1779,-1.178,-1.178,0,0,-1.1356,-1.1416,-1.1419,-1.1438,-1.1484,-1.1504,-1.1525,-1.156,-1.1574,-1.1605,-1.1624,-1.1664,-1.1678,-1.17,-1.1725,-1.1736,-1.1733,-1.1749,-1.1751,-1.1744,-1.175,-1.1738,-1.1738,-1.1747,-1.1747,-1.1747,-1.1747,0,-1.1354,-1.1392,-1.1423,-1.1451,-1.1474,-1.1506,-1.1524,-1.1554,-1.1579,-1.1603,-1.1631,-1.1658,-1.1674,-1.1688,-1.17,-1.173,-1.1735,-1.1731,-1.1766,-1.1766,-1.1754,-1.1738,-1.1726,-1.1724,-1.1747,-1.1747,-1.1747,0,-1.1356,-1.1385,-1.1414,-1.1456,-1.1467,-1.1483,-1.1516,-1.1538,-1.1573,-1.159,-1.1615,-1.1639,-1.1664,-1.1675,-1.171,-1.1707,-1.1723,-1.174,-1.174,-1.1745,-1.1756,-1.1742,-1.1724,-1.1723,-1.1748,-1.1748,-1.1748,0,-1.1331,-1.1377,-1.14,-1.1416,-1.1465,-1.1476,-1.1497,-1.1532,-1.155,-1.158,-1.1592,-1.1625,-1.1643,-1.1668,-1.1701,-1.1706,-1.1732,-1.1746,-1.1747,-1.1746,-1.1751,-1.175,-1.1735,-1.1762,-1.1762,-1.1762,-1.1762,0,-1.1325,-1.1342,-1.1389,-1.1403,-1.1423,-1.1458,-1.1476,-1.1501,-1.1531,-1.1551,-1.1581,-1.1599,-1.1642,-1.1666,-1.1692,-1.1716,-1.1725,-1.174,-1.1746,-1.1736,-1.1734,-1.1747,-1.1748,-1.1762,-1.1762,-1.1762,-1.1762,0,-1.13,-1.1332,-1.1359,-1.1403,-1.1415,-1.1427,-1.1465,-1.148,-1.1506,-1.1531,-1.1539,-1.158,-1.1609,-1.1645,-1.1686,-1.1704,-1.1725,-1.1736,-1.1713,-1.1717,-1.1715,-1.1715,-1.1708,-1.1708,-1.1735,-1.1735,-1.1734,0,-1.1294,-1.1307,-1.1352,-1.1366,-1.1386,-1.141,-1.1428,-1.1463,-1.1482,-1.1521,-1.1532,-1.1563,-1.1589,-1.1635,-1.1669,-1.17,-1.1712,-1.1707,-1.1717,-1.1706,-1.1711,-1.1709,-1.1711,-1.1704,-1.1704,-1.1703,-1.1703,0,-1.1279,-1.1294,-1.1319,-1.1349,-1.1369,-1.1395,-1.1422,-1.1433,-1.1474,-1.1493,-1.1522,-1.1542,-1.1583,-1.1614,-1.1649,-1.1673,-1.1695,-1.17,-1.1702,-1.1691,-1.1677,-1.1684,-1.1705,-1.17,-1.17,-1.17,-1.1701,-1.1701,-1.1263,-1.1276,-1.1309,-1.1335,-1.1359,-1.1383,-1.1399,-1.1426,-1.1451,-1.1485,-1.1505,-1.1534,-1.1568,-1.1617,-1.1639,-1.1663,-1.1671,-1.1674,-1.1674,-1.1674,-1.1671,-1.1674,-1.167,-1.167,-1.167,-1.167,-1.167,0,-1.125,-1.1272,-1.1296,-1.1332,-1.1352,-1.137,-1.14,-1.1416,-1.1441,-1.147,-1.1495,-1.1528,-1.1557,-1.1593,-1.1625,-1.1637,-1.1648,-1.1644,-1.1644,-1.1648,-1.1662,-1.1657,-1.1635,-1.1635,-1.1635,-1.1635,-1.1635,-1.1635,-1.1245,-1.1267,-1.1285,-1.1319,-1.1342,-1.1369,-1.1385,-1.1407,-1.143,-1.1465,-1.1489,-1.1512,-1.1544,-1.1578,-1.1606,-1.1616,-1.1626,-1.1619,-1.1632,-1.1644,-1.1648,-1.165,-1.1646,-1.1621,-1.1621,-1.1616,-1.1616,-1.1616]}]]